Wind_Speed
16 16 16 16 16 16 16 16 16 16 16 16 16 17 17 17 18 18 18 17 18 19 19 20 20 21 22 24 25 24 27 29 27 24 16 15 15 14 14 14 17 19 17 14 10 8 5 1 2 3 5 3 1 1 2 1 1 2 3 4 6 5 6 7 8 7 6 5 6 6 6 8 7 2 1 2 6 4 4 5 3 6 8 10 18 28 31 28
16 16 16 16 16 16 16 16 16 16 16 16 16 16 17 17 17 18 19 18 18 19 19 19 20 20 21 23 25 24 27 28 24 20 15 9 10 12 14 12 12 13 13 15 12 5 1 1 1 3 4 2 1 1 2 1 2 3 3 5 8 6 6 8 10 8 6 6 7 7 7 8 7 2 1 1 1 4 5 4 4 9 10 14 21 27 27 27
16 16 16 16 17 16 16 16 16 16 17 17 16 17 17 17 17 17 18 18 19 19 19 19 19 20 20 22 24 24 25 23 16 9 5 7 8 13 16 14 11 11 13 16 11 5 2 1 1 4 4 2 2 2 2 2 3 3 3 5 7 5 6 7 9 10 8 8 8 8 5 6 5 2 2 3 5 4 5 4 6 8 9 12 15 20 24 25
16 16 16 16 16 16 16 17 17 17 17 17 17 17 17 17 17 17 17 18 19 19 19 19 19 19 19 21 22 24 21 13 6 2 7 9 9 15 18 15 11 12 17 17 12 6 2 1 1 4 4 2 2 2 4 4 3 2 3 5 5 5 6 7 8 10 9 8 8 6 4 3 4 3 3 6 5 3 5 6 7 12 15 15 14 17 21 21
15 16 16 15 16 17 17 17 18 17 18 18 18 18 17 18 17 18 18 18 18 19 19 19 19 19 19 20 21 21 13 5 1 6 6 12 12 17 21 19 12 10 17 16 13 8 3 1 3 4 3 2 3 3 4 5 3 2 4 4 4 6 5 6 7 8 8 6 6 4 2 3 2 3 2 7 5 5 5 5 9 15 17 17 17 17 17 17
15 16 16 16 16 16 17 17 18 18 18 18 18 18 18 18 17 17 18 18 18 18 19 19 19 19 18 19 20 14 4 2 2 5 3 15 16 17 21 21 15 3 15 14 10 7 4 3 3 3 3 2 5 5 4 4 4 3 4 2 4 5 5 4 5 7 6 6 6 5 3 2 5 2 1 4 3 6 5 6 12 14 16 19 18 17 16 15
15 16 16 16 17 17 18 18 18 18 18 19 19 19 19 19 18 18 18 18 18 18 18 18 19 18 17 20 17 6 1 7 11 7 11 19 17 16 19 19 15 3 11 13 8 5 4 5 5 4 5 3 5 6 4 1 2 6 5 3 4 5 6 5 3 6 6 7 7 2 2 0 2 2 1 2 3 5 4 8 14 14 17 19 17 16 16 15
16 16 16 17 18 18 19 19 19 19 19 19 19 19 19 19 18 19 18 17 17 17 18 18 18 17 16 16 10 3 3 12 17 15 16 17 14 16 20 17 13 8 3 8 7 5 5 6 6 4 4 4 4 5 5 1 2 7 7 3 3 3 5 6 4 4 4 5 4 1 4 3 3 2 3 3 4 2 5 12 14 15 16 16 16 16 15 14
17 17 17 18 19 19 20 20 20 19 20 20 20 19 19 19 19 19 18 17 17 17 17 17 17 15 14 10 5 5 7 10 12 12 10 13 18 20 21 17 14 14 6 2 3 5 5 5 6 4 4 5 4 4 6 5 4 6 7 4 2 2 5 6 7 7 4 2 1 1 3 2 1 3 2 2 2 4 9 13 14 16 16 15 14 15 15 15
18 18 18 18 19 20 21 21 20 20 20 20 20 20 19 19 20 19 18 17 17 17 17 16 16 15 12 6 2 5 7 5 5 5 10 20 28 26 21 18 17 16 10 8 6 4 5 4 6 4 3 2 4 4 5 8 4 2 6 6 5 5 6 4 6 8 4 3 5 4 2 0 2 0 1 2 4 8 11 13 13 15 15 14 13 13 13 13
18 18 19 19 19 20 22 22 21 20 20 19 20 20 19 19 20 20 18 17 17 17 16 15 15 15 11 3 3 7 8 8 11 15 22 30 32 28 25 23 20 14 9 8 6 4 6 7 6 2 1 2 4 3 4 5 1 1 5 3 6 8 8 7 7 5 2 4 7 8 3 1 2 1 4 6 8 10 12 14 13 13 13 12 12 11 9 9
19 20 20 20 20 21 22 22 21 20 20 19 19 19 19 20 21 20 19 18 17 16 15 14 14 14 12 7 10 17 19 20 24 29 33 33 33 29 26 24 18 12 7 5 7 4 5 11 6 2 3 2 3 3 4 4 2 1 4 1 5 4 8 12 10 5 5 4 6 9 3 2 1 3 6 9 11 10 12 13 12 12 10 10 10 8 7 7
21 21 21 21 21 21 21 21 20 21 20 20 20 20 20 21 22 22 20 18 16 15 15 13 12 13 10 7 10 20 28 28 30 34 33 28 28 26 22 18 14 12 9 9 11 6 4 10 7 3 3 1 3 2 2 1 4 2 3 3 3 2 6 11 9 7 7 5 6 9 3 5 4 4 7 10 13 13 12 12 10 9 9 9 8 7 7 7
22 22 21 21 21 21 21 20 21 21 21 20 21 21 20 20 22 22 20 18 16 15 12 9 11 10 6 8 14 22 24 23 26 29 24 20 22 20 15 11 9 8 8 11 15 11 8 9 6 3 3 2 3 3 3 3 1 3 3 3 4 3 4 5 9 10 9 5 8 8 5 5 4 5 10 10 13 15 13 11 8 7 8 8 8 8 7 6
22 22 22 21 21 21 21 20 20 20 21 21 22 22 22 21 22 22 20 18 15 13 10 9 9 6 6 11 16 18 15 12 17 18 14 14 15 13 12 9 7 6 6 10 12 10 7 6 4 3 3 3 2 3 2 3 2 3 5 4 5 6 3 1 6 12 12 3 7 9 4 4 3 6 11 9 11 14 13 11 9 8 8 7 7 8 7 5
23 22 22 22 22 22 22 21 20 21 22 22 23 24 24 23 24 23 20 17 15 12 10 8 5 4 5 8 10 12 8 7 11 12 11 12 11 12 14 14 10 7 7 10 11 10 7 4 3 3 1 1 4 2 3 1 2 2 7 6 6 8 4 2 4 8 11 5 5 9 4 1 3 7 9 8 11 13 12 12 11 9 8 7 6 6 7 6
23 22 22 23 25 24 23 21 20 21 22 23 25 26 26 25 23 19 15 11 8 7 8 5 2 2 6 8 8 9 6 6 11 14 16 18 18 19 16 9 6 5 5 7 7 6 5 4 2 2 2 2 4 4 3 5 7 5 5 5 3 5 5 4 4 3 9 9 6 7 5 3 4 9 11 9 10 12 12 13 12 10 7 7 6 6 6 7
23 22 22 24 25 24 23 22 20 20 22 24 25 26 25 20 13 6 2 1 3 4 4 4 2 1 6 7 5 5 6 11 16 19 23 20 16 16 12 5 4 2 1 3 4 4 3 2 2 3 2 3 4 6 8 8 9 7 5 4 1 2 6 7 4 3 9 10 8 7 7 5 4 10 12 9 10 11 12 12 11 10 8 7 7 6 6 7
23 23 22 24 24 23 24 22 20 20 23 23 24 22 16 8 4 4 7 6 5 3 1 3 5 2 6 6 2 5 11 16 19 19 17 11 6 5 6 6 4 2 4 2 3 4 4 2 3 4 6 9 10 12 10 2 4 9 6 5 5 3 5 7 5 5 8 9 8 9 8 6 8 11 11 8 8 10 10 10 9 9 9 8 8 7 7 8
23 24 24 24 23 23 23 23 20 20 22 22 22 17 7 4 3 3 3 1 3 6 5 5 9 8 10 8 4 10 16 16 13 12 12 9 6 3 2 4 2 3 4 4 3 3 4 4 5 9 10 12 10 8 7 2 4 9 8 6 6 4 4 4 4 5 7 7 5 8 8 7 10 12 11 10 9 10 11 11 10 10 10 10 10 9 9 8
24 25 26 24 23 21 23 23 20 21 22 18 15 8 2 1 3 3 4 6 11 13 11 11 13 14 15 12 9 10 12 10 7 11 18 17 8 2 1 4 4 4 4 5 3 1 3 6 11 11 7 7 7 4 5 4 4 5 7 7 6 5 4 5 4 4 6 6 3 5 9 7 10 12 12 12 12 12 13 13 12 11 9 9 10 10 8 6
25 25 26 25 22 21 23 22 21 23 19 11 7 2 2 3 5 7 6 6 10 13 14 14 14 15 18 20 19 11 4 5 9 11 11 7 6 5 2 4 5 5 5 5 4 2 4 9 9 7 5 6 7 7 6 7 1 3 3 6 5 5 3 4 3 1 2 5 3 4 8 5 8 11 10 10 10 9 10 12 12 11 9 8 10 9 7 7
24 25 26 25 23 22 21 21 23 21 11 6 7 4 4 7 9 10 6 6 9 7 10 11 10 11 13 16 16 10 7 5 7 10 6 3 4 5 4 4 5 5 6 7 8 6 5 7 5 8 6 6 6 8 8 6 4 2 3 4 3 4 5 4 3 3 3 3 4 6 5 3 6 6 5 6 5 4 6 8 7 8 9 9 9 8 8 8
23 24 24 25 24 20 20 23 21 12 6 11 12 7 6 8 8 8 3 4 7 4 6 8 7 7 9 9 7 9 6 5 5 7 5 6 4 3 4 5 4 5 7 11 12 8 4 5 6 11 8 7 6 7 10 7 5 3 3 3 3 4 5 4 3 3 5 3 5 8 5 1 5 6 5 4 4 4 5 6 6 7 8 8 7 8 9 8
24 24 24 25 23 20 21 21 12 6 12 16 9 4 8 7 6 4 0 2 5 4 3 4 3 4 6 3 5 8 3 4 8 7 3 5 4 2 3 3 4 6 9 10 9 6 5 6 5 12 10 8 6 6 9 9 6 3 3 6 6 5 2 3 4 4 5 1 1 5 3 2 5 8 8 5 5 6 6 6 8 8 8 8 8 9 10 8
25 25 24 24 21 21 19 11 5 10 16 11 2 3 7 6 4 2 1 2 4 3 1 1 2 3 4 3 5 4 1 3 9 13 10 6 4 2 3 2 2 6 6 6 4 3 5 5 1 7 11 10 7 5 7 10 7 4 5 8 8 4 0 3 5 4 3 3 4 4 4 2 5 9 9 7 7 8 7 8 8 7 9 10 10 9 8 7
27 25 24 23 21 19 13 6 8 12 9 2 1 5 6 4 4 0 2 3 3 1 2 2 1 2 3 5 7 4 1 4 4 8 13 11 6 2 3 3 2 4 4 4 3 2 7 9 6 4 9 11 8 5 6 9 8 5 6 9 8 5 3 1 6 3 3 3 2 2 3 3 4 8 10 9 8 8 8 9 9 9 10 11 10 9 8 8
27 26 24 24 22 18 14 12 12 10 6 3 4 5 4 4 2 1 3 2 2 1 1 2 1 2 1 4 6 3 1 3 4 2 7 12 9 3 2 4 3 5 6 7 6 2 7 12 10 5 5 7 7 5 7 9 7 5 7 9 8 7 7 3 5 3 1 3 2 5 2 4 3 5 9 10 10 10 9 11 13 13 12 12 11 10 9 9
27 27 26 25 22 17 14 12 12 10 8 3 5 5 3 2 1 2 3 0 2 1 1 1 1 1 2 3 3 5 3 3 2 2 0 7 8 1 2 5 3 4 7 8 6 2 5 10 10 7 4 4 5 6 8 9 4 5 8 7 4 4 4 3 4 3 3 2 5 8 6 4 3 3 9 11 12 13 11 12 13 13 13 12 12 12 11 9
28 28 28 25 20 13 7 8 14 14 10 7 6 4 2 2 2 2 1 1 2 1 1 1 1 1 3 2 2 4 3 3 3 2 2 2 3 3 2 2 2 2 3 4 5 4 1 3 6 6 4 4 5 6 8 8 6 5 7 6 5 3 3 4 2 4 3 3 6 9 9 5 3 3 7 9 11 15 13 11 13 13 14 14 13 13 12 10
30 30 28 22 16 10 4 5 10 8 8 8 3 1 1 2 2 1 2 1 2 3 1 2 1 2 2 2 3 4 2 3 3 1 1 2 1 2 2 1 1 2 2 3 4 7 4 1 3 3 5 6 5 5 7 8 8 5 5 5 5 1 3 4 4 3 3 6 6 8 8 5 4 5 6 9 11 16 16 14 16 17 16 15 13 13 12 10
33 31 25 16 10 8 7 3 1 3 7 6 4 2 1 1 0 2 2 2 2 3 1 1 1 2 0 1 3 4 2 2 3 1 2 2 3 4 3 3 2 2 1 2 3 4 4 1 3 3 4 8 5 5 5 6 8 5 4 6 6 2 1 1 1 0 4 6 4 6 9 4 5 6 8 12 11 14 17 16 18 19 17 16 15 13 12 10
33 27 16 8 4 7 9 6 5 6 6 7 5 2 1 1 2 4 3 1 2 2 1 1 3 3 3 2 3 3 2 3 2 1 2 2 3 4 4 4 3 4 2 3 4 3 2 2 2 2 3 7 7 6 5 5 8 8 5 7 8 5 4 6 5 2 3 3 4 3 8 3 4 4 8 15 15 16 18 17 16 15 15 15 14 13 11 10
29 18 9 5 3 4 6 9 8 5 4 6 3 1 1 3 3 3 3 3 3 3 2 1 3 5 6 6 5 3 2 3 3 2 2 3 3 3 4 4 2 3 2 3 3 4 5 3 4 5 3 5 8 6 5 6 7 7 3 5 5 5 6 6 4 3 3 1 3 1 4 4 3 4 8 13 13 13 13 11 9 8 9 10 10 11 11 11
23 11 5 6 4 1 3 10 12 8 4 3 2 1 3 3 3 2 4 3 1 3 3 2 4 7 7 6 6 5 3 3 3 3 2 3 3 4 4 4 4 3 2 4 2 3 6 4 5 5 4 6 8 6 5 7 6 5 2 4 3 5 5 3 3 4 4 2 1 1 4 4 4 4 5 4 5 5 8 7 8 9 9 11 10 11 12 10
19 9 5 7 8 4 2 11 14 12 7 2 1 3 3 3 3 1 1 2 1 3 4 5 5 6 5 2 2 4 4 2 2 2 1 3 3 3 4 3 4 5 3 3 2 2 5 4 5 3 4 6 8 8 6 6 6 3 3 5 4 4 6 3 1 1 4 3 1 2 3 3 1 4 4 0 3 6 8 9 10 11 12 13 12 11 12 11
18 9 4 6 8 5 3 12 16 14 6 2 2 4 2 3 4 3 2 2 2 1 3 4 2 2 3 1 0 2 3 2 1 1 1 2 3 3 3 1 2 7 6 3 0 1 5 3 4 5 7 7 6 9 7 5 6 5 6 6 3 3 2 3 1 3 4 3 3 1 3 2 1 2 4 2 6 8 9 10 10 10 12 14 12 12 13 12
15 6 2 6 9 5 4 14 18 12 3 1 5 6 3 3 4 4 4 4 3 3 3 3 1 2 1 2 1 3 4 2 2 2 2 2 3 3 6 2 1 6 7 4 1 3 2 1 4 5 10 7 4 7 6 6 4 4 6 5 4 4 3 1 3 1 2 3 3 3 3 3 4 4 3 4 9 10 10 10 10 12 14 14 13 13 14 13
10 3 2 6 10 6 7 16 14 6 1 1 4 5 3 4 5 5 5 5 5 5 4 3 2 2 2 2 2 3 4 4 4 3 2 2 3 4 7 4 2 5 7 6 3 3 1 1 2 4 8 6 3 5 7 7 3 2 4 5 3 4 4 2 3 2 3 3 2 2 2 3 5 5 7 10 12 13 13 11 12 16 17 15 13 13 13 13
5 2 1 5 8 2 10 13 7 2 1 2 3 3 3 5 6 6 6 6 5 4 3 3 3 2 2 3 2 3 4 4 4 3 2 4 3 4 6 7 4 5 6 6 4 2 2 0 1 3 2 6 5 5 8 9 5 4 5 6 4 2 2 3 2 1 3 3 2 2 2 5 6 5 9 13 12 13 15 15 14 15 16 15 14 14 13 12
3 1 2 4 2 6 11 7 1 0 2 3 3 4 5 5 6 6 6 7 6 5 4 4 4 3 3 3 2 1 2 3 4 3 2 4 4 3 5 8 7 5 5 5 4 2 1 1 1 2 1 4 4 3 5 7 7 6 5 4 6 4 4 4 4 1 2 3 3 3 1 7 6 4 9 11 10 11 15 16 15 15 16 15 13 14 13 12
1 1 3 3 4 9 5 1 2 1 2 4 4 5 7 6 6 6 4 4 6 6 4 4 5 5 5 4 2 1 2 3 3 4 3 4 6 5 5 8 10 7 5 3 2 3 3 1 1 2 3 5 4 1 6 9 8 6 4 3 4 4 5 6 5 3 1 0 1 3 0 6 6 3 5 6 7 10 12 12 11 10 11 11 11 12 12 12
0 1 4 2 7 6 1 2 2 1 3 5 5 8 8 6 4 4 3 2 4 5 4 4 4 4 4 4 2 2 3 3 3 5 4 4 7 7 6 9 11 8 5 3 3 4 4 1 1 3 3 2 4 4 3 8 8 5 5 4 5 5 5 5 5 4 4 2 1 1 2 6 6 5 3 2 4 7 7 6 5 5 6 8 10 11 11 11
2 2 2 2 7 4 1 2 2 3 5 6 8 9 6 4 4 5 4 3 3 3 4 4 3 3 3 1 2 3 3 3 3 4 4 3 4 7 8 9 10 8 6 4 4 3 3 2 1 1 2 3 3 2 1 4 6 5 6 6 6 6 6 4 3 4 3 4 5 4 4 7 6 5 2 3 5 5 6 6 6 7 7 9 10 10 11 11
3 1 1 2 6 5 2 1 1 4 6 8 9 10 7 3 5 7 6 5 5 4 3 2 2 2 3 2 2 4 4 4 4 3 3 3 3 4 8 10 10 9 7 6 6 5 3 3 3 3 3 4 5 5 4 4 5 5 6 9 9 8 8 6 3 4 4 4 4 5 5 8 6 4 1 4 6 6 6 6 7 7 8 9 10 10 11 11
2 1 3 2 3 3 2 2 2 3 5 6 6 6 6 6 6 5 6 5 5 4 3 2 3 2 3 4 3 5 4 4 3 1 1 3 3 3 8 13 12 10 11 11 8 5 2 2 3 4 4 5 6 6 3 3 5 5 7 9 9 8 9 7 4 5 5 3 2 5 7 6 8 5 3 4 7 8 7 7 8 8 10 10 10 10 10 10
2 0 3 4 1 2 2 2 2 2 5 6 4 4 6 10 10 3 3 3 3 4 3 3 4 2 2 4 3 5 4 3 2 2 4 4 4 2 7 13 11 12 16 14 6 4 3 2 3 5 7 8 8 8 5 5 8 8 7 8 7 7 9 8 6 6 6 5 4 8 5 4 9 8 7 8 7 8 8 10 9 9 11 11 11 11 11 11
2 1 1 3 2 3 2 3 4 6 9 8 3 3 7 10 11 7 1 3 2 2 2 1 4 4 4 4 4 3 2 0 0 3 5 5 4 1 4 8 8 11 14 9 3 3 3 2 4 5 6 10 10 10 8 8 10 9 9 9 8 8 11 10 9 7 7 8 8 8 7 8 10 8 9 9 6 5 7 8 8 10 11 11 12 13 13 12
2 1 1 2 1 4 5 8 9 9 10 8 3 3 8 10 11 11 5 3 3 1 2 2 4 5 6 5 4 2 2 2 1 4 3 2 4 4 5 5 5 7 8 4 2 3 2 3 4 4 7 11 11 9 9 8 9 10 11 12 11 10 11 11 8 7 8 8 9 8 9 10 9 7 7 5 4 3 4 6 7 10 12 13 14 14 13 13
3 2 3 2 3 5 6 7 7 6 6 4 3 5 7 9 11 13 9 4 4 4 1 4 11 11 9 6 3 1 2 3 3 5 3 1 3 5 4 4 3 4 5 4 1 2 1 3 1 1 4 8 7 4 7 9 10 11 11 12 12 11 10 7 3 3 5 5 5 4 6 8 8 4 4 4 7 7 7 9 9 10 12 13 14 14 14 14
5 6 5 4 4 4 4 4 3 4 4 3 4 6 8 9 11 14 11 4 4 5 3 6 13 10 4 4 3 2 4 5 6 8 5 2 2 3 1 3 6 6 5 4 1 2 2 3 2 2 3 6 4 2 6 7 9 10 10 11 12 10 8 5 4 5 7 6 3 5 5 7 7 3 4 5 8 9 9 11 10 10 12 14 15 15 15 15
7 6 5 4 4 3 3 4 3 3 2 2 4 6 7 10 12 11 8 3 4 7 5 6 10 6 2 3 5 5 6 8 10 9 6 5 4 1 3 1 5 7 5 3 2 2 3 2 2 1 2 6 4 2 5 6 6 5 8 10 11 9 6 3 3 6 7 7 7 6 6 6 5 6 6 6 8 10 10 12 12 12 13 14 15 16 16 16
Wind_Direction
352 350 347 346 344 342 342 341 339 338 338 336 336 336 334 335 332 330 330 330 330 327 328 328 329 330 330 331 331 329 326 322 319 316 300 289 304 319 317 298 277 274 275 277 286 299 317 309 204 154 128 126 144 223 225 187 107 134 132 197 214 187 193 178 176 188 172 206 222 222 200 197 244 309 144 23 48 89 67 31 28 36 48 82 106 123 133 138
351 349 347 345 343 341 341 340 339 337 337 335 335 334 332 333 330 330 330 330 330 328 329 328 328 330 330 331 330 330 326 320 313 301 294 315 349 349 345 331 286 259 252 256 261 272 320 27 99 113 112 135 208 177 202 220 172 182 142 201 221 182 187 181 176 185 172 195 219 227 193 186 221 225 171 194 149 138 85 44 72 75 77 94 112 127 134 139
349 349 346 344 341 340 339 338 338 337 335 334 333 332 331 330 330 330 329 329 330 330 330 328 329 329 330 331 330 331 325 319 307 286 343 19 360 351 352 338 294 242 224 232 231 216 219 243 124 110 110 150 207 148 173 221 200 191 153 212 230 180 191 201 181 190 198 194 220 242 183 172 223 181 158 172 164 167 146 142 123 117 123 122 127 133 138 142
345 345 343 343 341 338 337 336 336 335 333 332 331 330 329 328 328 327 328 328 328 330 330 330 330 327 330 329 329 332 326 316 291 171 55 13 343 357 358 346 308 240 214 216 213 203 223 232 99 91 115 174 230 131 171 216 202 180 191 213 218 170 194 220 198 197 206 197 215 234 143 170 227 127 130 146 142 231 208 183 160 151 146 142 144 145 147 148
342 340 340 340 340 338 336 334 332 332 330 329 328 326 326 325 325 324 325 325 326 328 327 329 329 328 330 327 328 334 331 314 254 138 53 355 344 356 1 1 342 240 207 203 205 207 226 188 86 74 103 164 168 147 211 218 172 196 233 205 191 176 198 228 208 206 208 197 224 239 176 200 180 84 124 152 169 238 213 177 163 157 152 152 152 151 153 152
341 339 338 336 336 335 333 330 327 327 326 325 324 323 323 322 321 321 321 321 323 325 326 328 328 330 329 327 329 332 335 302 269 159 348 336 331 345 1 5 1 247 191 183 183 184 183 141 112 127 127 148 181 192 225 214 169 221 253 213 208 190 202 235 204 217 212 184 211 222 219 158 102 68 173 140 199 248 242 175 155 156 155 152 152 154 159 160
341 338 337 335 333 331 329 327 324 322 320 319 319 319 319 319 320 320 320 319 321 323 325 325 325 329 328 330 333 329 180 269 266 261 309 317 320 341 354 360 14 34 181 172 166 161 149 145 158 159 135 155 203 205 212 227 194 220 244 253 239 201 207 237 206 226 221 204 219 223 331 55 113 247 146 72 303 282 245 161 147 149 152 152 156 162 164 164
339 337 335 333 332 331 330 328 326 322 319 316 313 314 314 316 317 317 318 319 320 320 321 322 323 328 328 336 341 317 250 259 268 288 303 308 321 341 343 351 16 15 184 182 181 168 147 156 177 156 150 200 197 190 190 191 269 225 224 238 240 208 224 245 247 248 233 231 249 335 308 270 196 183 95 39 344 353 129 137 141 145 151 159 165 166 165 168
338 336 335 335 334 333 331 328 326 323 320 317 312 309 309 311 313 314 315 316 319 317 317 319 319 322 325 334 347 302 266 255 277 293 298 319 330 332 334 339 350 358 4 289 260 197 181 168 193 171 165 207 185 180 177 179 233 219 202 210 230 238 248 244 245 247 233 232 170 172 278 297 216 141 84 336 35 97 126 132 143 149 157 168 170 171 170 172
337 335 333 332 331 331 330 326 323 321 320 318 314 309 305 306 308 309 309 311 314 315 316 316 315 318 318 320 338 285 264 263 284 281 304 320 322 321 323 328 333 343 345 328 326 223 205 182 197 172 140 201 187 189 176 183 216 176 172 207 220 232 257 228 226 241 231 218 165 163 229 249 302 195 194 251 124 129 133 139 151 156 165 171 173 175 174 177
335 333 331 330 329 330 329 325 321 318 318 317 315 312 307 302 302 304 305 305 309 312 314 312 312 313 307 291 214 248 256 279 289 297 307 312 314 313 310 312 317 322 318 318 311 250 232 229 212 151 176 206 180 206 216 198 223 110 149 196 235 227 247 232 222 233 202 229 183 163 189 117 5 297 189 165 140 142 142 150 160 162 170 173 174 175 172 180
333 331 330 331 330 329 327 324 321 318 317 316 313 311 309 304 299 298 299 301 305 306 308 309 307 305 298 272 237 249 265 284 296 302 302 303 303 303 303 304 304 298 284 284 286 271 229 238 231 197 236 187 154 202 237 203 151 193 135 136 270 231 237 235 229 210 168 224 179 149 184 225 196 231 181 152 144 146 146 156 165 167 172 171 173 174 173 177
333 333 333 331 329 328 326 326 323 319 318 316 312 309 307 304 299 297 296 297 299 301 306 305 297 300 293 266 254 265 277 288 296 298 296 296 297 299 303 299 293 285 266 248 258 273 257 243 226 223 268 126 173 209 278 198 144 159 126 158 261 277 247 227 211 199 184 202 157 145 214 236 228 226 176 156 149 146 151 162 165 169 172 170 174 175 178 176
333 333 333 330 328 327 327 327 324 320 318 316 313 309 305 302 300 299 297 295 295 298 303 297 290 297 279 260 282 286 290 295 291 290 294 297 299 305 314 304 286 277 259 248 256 270 276 254 220 219 278 222 237 310 2 357 110 148 150 175 198 222 252 197 181 185 195 207 149 156 236 245 248 210 174 162 154 152 158 167 165 168 171 172 177 176 184 185
333 331 330 326 325 326 327 326 325 321 318 315 313 310 304 299 298 300 300 295 292 291 289 283 275 286 284 275 287 296 303 297 283 289 304 306 300 304 320 324 305 279 258 253 257 267 264 238 191 191 258 221 231 339 12 341 350 146 181 201 192 212 264 239 192 181 188 202 143 165 222 248 240 192 178 166 160 158 158 165 166 169 171 173 179 179 185 187
331 331 328 323 323 325 324 323 324 322 319 316 315 313 306 302 302 300 297 291 285 276 267 271 255 233 267 279 297 308 301 278 288 307 315 311 300 288 299 310 304 276 255 253 252 256 240 190 163 179 196 177 166 121 64 330 291 221 204 201 194 210 233 282 258 194 176 143 159 186 178 209 212 184 185 173 165 163 157 165 170 171 174 174 178 179 182 182
331 331 327 322 324 326 325 324 323 322 322 320 317 315 311 309 305 298 294 289 273 244 226 224 153 185 249 267 297 305 298 303 316 318 310 306 297 284 283 294 299 269 244 245 233 234 216 174 169 174 162 151 146 128 126 199 223 228 207 199 196 192 185 206 270 228 164 153 189 196 171 215 205 173 179 176 169 165 161 170 176 175 175 175 175 180 185 188
330 330 326 324 325 326 326 328 325 324 325 322 319 316 314 313 310 310 339 116 133 147 202 209 135 97 255 246 271 309 324 321 318 311 305 307 298 277 258 235 275 281 212 255 218 187 187 187 143 131 167 176 160 168 183 210 216 197 173 175 147 131 174 192 221 215 167 171 185 175 187 226 187 166 175 180 174 169 168 171 176 177 177 177 178 186 190 194
329 327 324 323 324 324 325 329 328 326 326 323 322 322 321 324 345 63 94 108 111 114 205 201 173 202 269 245 245 324 317 311 310 303 295 307 324 278 227 223 259 159 145 205 209 182 175 156 131 156 193 195 194 192 188 218 199 172 145 152 160 144 196 201 213 212 166 168 186 172 181 185 163 170 173 175 180 174 168 165 172 180 182 183 183 188 191 198
328 325 323 322 323 321 323 327 326 326 328 325 327 335 350 7 355 20 64 128 228 228 232 205 194 231 275 285 328 326 314 309 303 286 274 283 319 340 192 208 219 150 174 174 183 208 169 168 201 199 202 200 199 195 192 9 68 142 134 150 171 155 202 217 222 222 156 153 203 174 163 168 167 174 174 172 180 175 165 167 181 186 188 192 189 190 189 195
328 326 325 325 324 321 321 324 324 327 328 322 328 350 49 330 319 321 320 269 246 240 244 232 216 233 256 268 292 313 318 312 284 272 277 277 270 280 239 191 166 178 186 155 165 247 158 196 220 207 194 184 174 160 206 264 30 99 137 152 175 172 199 221 212 227 173 165 240 162 153 173 173 175 180 174 176 180 173 176 188 188 188 191 191 191 184 178
328 327 326 326 325 322 321 322 325 326 324 320 336 21 208 284 297 300 307 280 257 236 238 242 233 245 255 259 268 272 274 283 285 281 277 265 207 194 191 174 185 188 158 145 181 200 193 222 218 182 140 134 155 158 194 234 285 54 100 134 169 196 205 241 237 326 165 176 236 168 152 175 181 177 180 178 180 187 182 183 188 188 187 189 192 189 176 170
329 328 325 325 325 324 322 324 326 325 328 335 326 286 285 322 314 303 296 291 286 239 227 239 234 247 258 261 256 229 201 222 269 279 250 164 171 195 173 178 194 166 148 174 194 182 203 232 183 147 146 137 156 167 173 222 232 90 78 121 169 193 175 212 243 31 55 125 151 142 130 168 184 170 168 177 172 160 172 178 182 190 193 195 196 190 186 180
329 327 324 323 325 325 324 324 323 325 345 332 312 291 327 342 319 306 282 281 294 264 229 226 219 233 247 263 230 190 204 206 210 269 239 167 174 193 172 175 164 167 185 192 197 197 242 267 165 154 169 152 148 167 165 195 227 162 129 168 179 168 169 185 183 96 56 54 117 116 92 202 191 179 172 158 143 144 158 163 171 190 194 194 196 196 199 192
328 326 324 325 327 326 324 322 317 329 333 322 309 329 351 346 321 303 309 311 287 273 257 220 214 228 226 230 174 172 205 236 219 246 233 162 181 198 182 178 157 196 201 183 193 211 252 279 162 158 175 164 146 169 174 177 205 215 199 213 198 163 147 87 108 101 74 14 220 123 108 256 204 195 190 167 168 173 165 175 186 188 187 193 201 202 199 190
328 327 326 327 327 326 327 322 310 327 329 318 291 346 340 340 334 293 119 348 285 271 287 218 192 208 218 166 154 158 116 260 232 226 228 223 221 199 186 195 183 204 187 161 188 214 226 256 219 162 172 170 168 185 187 169 172 229 226 210 203 179 86 63 91 98 131 200 238 158 150 204 204 204 198 177 183 184 173 188 196 191 193 200 206 205 198 186
329 329 328 326 324 326 324 307 310 319 319 293 305 333 330 336 337 309 88 5 296 230 140 252 184 174 225 175 158 138 144 285 274 213 214 212 200 161 184 203 180 193 152 143 206 185 184 214 248 217 170 176 190 192 192 165 158 223 217 185 185 187 219 134 89 97 183 178 222 206 136 137 198 210 193 175 183 189 183 194 203 203 204 205 206 206 199 190
328 329 327 322 319 316 303 296 305 300 271 270 327 338 335 331 319 79 74 6 290 127 125 275 204 180 252 157 170 184 228 311 343 243 212 194 185 119 170 216 185 188 176 170 206 187 168 198 216 209 178 189 188 163 164 156 157 215 195 172 177 185 198 175 104 103 130 108 194 246 177 148 234 222 180 177 192 199 194 199 208 210 209 206 205 209 205 192
328 326 324 321 316 307 298 289 278 267 258 290 350 341 334 340 348 71 80 43 285 323 348 309 180 248 7 92 203 254 295 340 313 282 200 177 196 173 190 217 181 191 203 185 198 200 169 197 196 173 183 198 163 145 150 152 172 194 166 149 138 166 167 142 138 129 95 112 211 221 193 176 268 231 173 180 198 206 205 206 212 212 210 208 205 209 207 192
327 324 323 322 315 308 305 272 265 266 259 271 315 330 339 7 49 62 51 275 307 293 267 27 49 339 3 29 282 261 258 278 277 295 34 124 233 264 232 205 137 157 209 177 197 227 205 183 181 164 178 185 153 150 155 163 172 139 134 119 80 66 57 69 97 101 110 247 225 202 192 186 249 242 186 184 193 199 203 209 213 212 208 206 205 207 204 193
326 324 323 319 308 296 286 278 285 272 235 243 269 92 17 7 69 100 242 266 312 292 316 24 360 344 21 29 311 290 273 273 287 260 188 90 112 247 261 298 39 65 77 121 195 245 282 152 194 194 166 158 141 154 162 175 178 138 123 133 117 79 25 35 11 52 164 240 234 190 173 165 225 246 209 203 198 194 198 205 207 208 205 202 202 203 200 194
327 326 324 316 293 254 231 246 11 124 166 171 134 96 47 29 58 225 247 332 312 287 328 34 291 291 294 153 229 263 289 282 281 216 191 121 139 204 210 189 168 102 152 182 169 234 261 195 240 280 174 162 151 159 162 172 190 182 129 138 152 168 95 168 244 180 204 247 269 174 148 149 239 238 205 206 208 199 200 205 205 204 200 196 197 198 195 191
329 331 329 317 275 232 223 209 140 114 127 134 117 53 98 145 253 219 221 310 247 249 297 255 262 259 252 260 236 227 230 238 244 230 202 145 153 207 228 222 169 114 171 181 124 163 223 316 283 247 195 176 163 162 168 171 187 194 169 156 168 163 162 197 211 235 225 266 320 158 148 171 260 252 200 196 206 207 204 208 206 201 197 192 192 191 189 189
334 339 338 324 291 249 223 198 180 146 116 123 110 44 180 233 255 210 222 248 228 261 282 255 278 265 246 250 238 197 202 237 207 183 195 158 150 189 229 245 193 113 115 145 131 162 180 256 238 200 211 189 176 175 163 147 170 197 186 139 159 166 171 193 193 194 208 233 347 75 163 181 199 235 208 196 210 212 202 201 189 177 182 180 182 187 187 190
341 357 10 15 22 315 210 189 192 194 168 119 106 211 219 245 255 232 244 240 240 286 266 230 272 275 258 239 233 211 193 242 218 174 182 177 165 169 189 221 194 150 112 151 177 164 169 234 252 209 205 176 172 178 143 128 161 203 141 118 184 187 149 138 169 168 156 131 66 175 212 215 198 251 258 223 237 205 173 167 152 153 163 164 177 188 189 189
353 23 53 35 27 12 189 183 185 186 183 133 152 227 233 239 233 221 247 243 260 289 289 277 253 257 268 237 230 221 181 199 244 206 207 188 186 175 179 210 179 166 160 155 191 155 157 251 279 183 200 196 169 172 174 161 163 170 157 176 202 166 121 109 191 68 95 142 219 213 248 302 288 277 307 8 184 174 166 167 163 162 162 167 180 186 188 189
353 10 36 7 359 5 171 177 171 169 166 135 221 241 240 237 236 226 249 288 285 258 290 294 230 212 282 307 213 205 171 169 207 196 217 203 210 170 163 234 162 176 190 150 255 227 150 239 277 164 190 227 181 166 192 190 152 148 193 196 145 108 96 97 148 10 62 168 259 269 216 259 175 243 323 78 154 178 180 174 168 164 165 174 184 184 186 186
342 337 332 345 350 1 170 172 163 157 141 163 246 260 244 222 233 216 232 267 273 258 255 264 218 163 306 314 249 177 172 191 178 180 204 216 239 177 158 197 170 181 193 145 95 287 152 195 281 186 183 209 171 158 195 216 182 156 186 187 137 168 218 86 139 160 107 165 277 300 243 236 196 214 258 190 180 185 182 169 163 169 177 182 183 183 183 179
340 335 320 345 352 357 167 165 153 132 84 217 251 264 241 249 254 233 239 259 263 263 251 236 228 206 213 251 224 167 176 184 164 179 196 172 242 206 166 166 186 190 189 156 154 281 298 112 277 221 183 163 142 174 191 204 214 107 150 173 169 179 196 174 149 165 154 163 226 274 276 255 229 217 211 207 196 180 173 173 177 183 187 186 182 180 179 177
353 11 317 340 347 353 158 154 132 76 235 231 254 261 267 280 271 248 236 243 249 247 242 241 230 220 238 244 226 175 183 181 163 180 206 179 216 236 179 165 169 182 170 161 180 270 326 80 259 273 196 153 177 210 191 183 180 160 166 181 186 169 154 178 182 138 139 148 171 197 264 259 244 209 200 211 204 182 177 180 187 192 190 187 182 177 174 172
359 45 309 335 357 152 146 139 123 180 234 261 261 256 270 273 274 274 246 227 231 229 237 258 248 253 273 260 267 192 171 181 176 175 201 194 197 238 200 169 159 166 154 150 188 213 231 209 260 303 227 175 192 183 158 171 173 168 175 190 187 160 119 163 209 251 113 140 166 157 231 266 256 212 205 209 195 189 191 186 187 193 190 185 180 173 170 168
4 63 308 321 156 154 142 194 224 190 243 263 258 261 273 271 273 292 281 227 227 225 228 253 246 244 246 232 246 268 187 191 194 184 182 191 197 220 219 177 162 162 153 142 195 203 179 152 326 279 232 214 241 237 157 163 158 160 189 197 166 145 126 158 194 226 209 190 138 122 219 273 270 263 240 221 191 193 200 195 191 190 184 177 168 165 165 164
360 305 306 271 169 155 46 273 215 199 241 258 275 268 266 263 261 283 294 239 226 218 212 226 225 221 226 214 205 224 205 187 193 201 189 185 207 218 206 179 165 155 152 163 194 194 185 175 333 303 290 280 303 322 148 152 143 159 202 187 162 170 161 156 167 175 189 210 158 118 277 270 281 300 277 204 167 173 179 180 169 147 153 160 158 160 162 160
298 269 297 212 189 189 335 272 278 304 281 290 298 285 270 242 237 254 256 225 214 217 227 232 223 216 222 203 204 233 240 214 207 210 195 188 219 208 184 180 176 162 165 185 184 179 198 195 109 25 7 49 48 36 110 179 176 180 199 194 190 179 143 128 136 143 191 221 165 148 246 256 278 316 317 132 128 141 152 149 141 138 148 157 157 159 161 159
308 245 278 225 198 213 242 199 259 291 297 306 302 298 296 267 233 229 231 235 217 209 248 247 143 173 199 170 224 245 238 214 211 210 192 197 256 214 174 180 191 184 177 185 180 165 181 193 141 116 134 144 164 183 193 203 192 182 192 195 198 184 154 146 145 148 213 240 155 153 227 259 286 325 13 133 134 144 154 142 137 144 154 159 160 160 161 159
360 31 318 313 187 209 237 207 210 254 289 307 304 300 309 311 289 229 209 239 223 195 248 251 134 166 203 176 221 257 243 219 220 276 230 204 244 230 179 182 194 190 180 184 180 141 127 213 173 162 191 195 201 222 230 162 169 193 203 196 195 185 166 150 136 167 193 178 175 213 214 251 283 277 221 192 162 157 164 157 151 153 157 159 159 158 158 159
38 84 321 346 297 261 265 206 201 249 282 302 311 304 308 312 312 300 166 218 213 183 232 226 160 190 239 180 208 249 244 237 215 235 261 245 247 256 179 176 184 188 186 191 192 124 94 290 217 195 230 241 234 246 251 180 176 191 198 196 191 170 160 160 178 199 172 139 241 255 196 206 263 253 223 213 180 165 176 174 167 159 158 159 154 154 156 155
36 236 303 18 324 288 314 299 302 307 300 299 290 290 309 316 323 333 287 245 252 188 239 241 168 209 265 239 225 228 201 28 290 226 246 237 218 166 135 157 180 194 190 195 217 143 117 277 230 205 248 257 247 244 237 204 188 182 182 188 185 163 161 176 197 200 164 163 228 237 178 200 246 247 226 211 180 170 179 171 160 150 150 154 153 154 156 154
24 307 328 31 297 269 281 287 298 306 300 298 295 308 319 321 326 330 317 295 321 258 223 301 275 286 302 267 225 168 137 135 227 247 256 205 160 127 118 149 185 190 181 192 234 133 116 262 233 216 258 266 254 231 215 206 188 176 183 188 179 171 176 185 200 198 179 198 232 215 192 222 242 234 223 198 132 106 112 117 129 142 149 155 156 156 160 162
16 320 323 338 285 271 269 280 298 300 289 304 337 337 328 323 328 331 321 295 297 296 305 310 303 315 322 287 232 155 180 170 184 231 263 44 112 118 130 165 162 147 167 194 235 96 160 243 229 134 258 273 270 208 190 202 189 178 190 190 174 172 184 187 189 181 183 226 252 192 189 242 256 221 186 149 125 124 130 136 145 153 156 157 159 163 168 171
338 298 311 311 291 294 287 285 305 303 300 343 353 339 327 319 325 327 313 264 235 267 277 290 297 312 331 292 277 242 222 195 203 227 236 228 168 125 108 173 152 143 166 184 136 109 171 242 337 31 272 281 303 136 165 187 177 171 190 192 175 170 179 181 183 186 186 189 158 128 172 242 255 194 136 134 139 140 147 154 156 160 163 162 167 172 175 176
333 304 313 297 277 313 322 310 321 312 308 348 336 324 308 300 312 326 323 303 262 264 251 265 291 309 18 294 280 260 231 207 214 229 225 222 218 131 2 339 134 135 155 152 119 126 155 221 278 322 264 277 309 91 138 132 128 173 209 192 176 170 161 152 194 211 197 165 140 156 209 233 210 158 139 146 157 159 169 171 165 163 167 171 176 178 179 180
Height
827 826 825 824 823 822 820 820 818 817 816 815 813 812 811 810 808 807 806 805 804 803 801 800 799 797 796 794 791 789 786 783 779 779 778 773 771 771 769 768 766 767 768 768 768 768 767 767 768 769 769 770 773 773 772 772 772 774 780 786 787 788 786 781 782 781 779 778 775 773 773 776 776 773 772 773 776 780 781 782 781 780 778 778 780 781 785 789
827 826 825 824 823 821 821 819 818 817 816 814 813 812 811 809 808 807 806 804 803 802 801 800 798 797 796 794 791 789 786 782 779 777 773 770 771 771 768 766 764 765 766 766 767 767 768 767 767 768 769 771 773 773 773 772 772 774 779 782 779 778 776 770 771 772 772 772 770 768 769 773 774 773 772 776 782 782 783 787 786 786 785 784 783 784 786 789
827 826 825 824 823 821 821 819 818 817 815 814 813 811 810 809 808 807 805 804 803 802 800 799 798 797 795 793 791 789 785 782 778 773 770 770 770 769 767 765 762 762 763 764 765 766 767 767 767 768 769 772 773 773 774 772 772 773 776 779 773 770 770 766 766 767 766 766 766 767 769 771 771 771 771 775 782 783 783 787 788 790 789 787 786 786 787 790
827 826 825 824 823 821 820 819 818 816 815 814 812 811 810 809 808 806 805 804 802 801 800 799 798 797 795 794 791 788 786 781 773 768 769 769 768 768 765 762 761 760 761 762 765 766 766 767 766 767 769 773 773 773 774 772 771 773 773 774 769 767 768 765 764 763 762 762 763 765 768 771 769 769 771 774 781 783 781 780 782 785 786 786 786 786 787 789
827 826 825 824 822 821 820 819 817 816 815 814 812 811 810 809 807 806 805 803 802 801 800 799 797 796 795 793 791 789 787 777 767 766 768 767 766 766 764 761 759 758 759 762 764 765 765 766 766 767 770 772 773 773 773 769 769 772 770 768 766 766 766 763 762 762 761 762 763 765 768 769 767 770 772 772 776 777 775 774 776 778 779 781 782 785 787 788
827 826 824 823 822 821 819 818 817 816 815 813 812 811 809 808 807 806 804 803 802 800 799 798 797 796 794 793 791 790 788 774 764 767 766 765 766 765 764 762 760 758 759 761 763 764 765 765 766 768 770 772 772 771 770 768 768 772 769 766 765 765 765 762 761 761 760 762 764 765 765 765 768 772 774 773 773 772 770 770 771 775 777 778 780 782 784 785
827 825 824 823 821 820 819 817 816 815 814 813 811 810 809 807 806 805 804 802 801 800 799 798 797 796 794 793 790 790 791 777 765 767 766 765 766 764 765 764 762 761 760 762 762 763 764 765 766 767 770 772 771 770 769 767 766 771 770 767 765 764 764 761 760 760 760 762 762 763 763 766 769 771 774 775 773 771 768 767 769 773 776 778 780 781 782 783
826 825 823 822 821 819 818 816 815 814 812 811 810 809 808 807 806 804 803 802 801 800 799 797 797 796 794 793 791 791 790 775 764 767 767 765 765 765 765 764 764 763 763 763 762 763 764 765 766 766 769 770 769 769 768 768 768 769 770 767 764 764 763 760 760 760 761 762 762 764 765 767 768 769 774 776 773 770 767 767 770 773 776 778 779 780 781 782
825 824 823 821 820 818 817 815 814 813 811 810 809 808 807 806 805 803 802 801 800 799 798 797 796 795 795 793 794 793 781 767 765 767 766 765 765 765 765 764 765 764 764 763 763 763 763 765 765 763 766 767 767 767 765 769 769 765 765 766 764 764 762 760 760 760 762 763 762 765 767 768 769 769 775 777 773 772 770 770 772 773 777 779 779 779 779 780
825 823 822 820 819 818 816 815 813 812 810 809 807 806 805 804 804 802 801 800 799 798 797 797 796 795 795 792 796 793 773 764 767 765 765 765 764 764 764 764 764 765 765 764 763 764 763 763 763 762 764 764 765 766 765 766 764 760 761 763 763 763 761 761 761 760 762 763 762 766 768 770 770 770 776 777 773 773 773 774 774 775 778 779 779 779 779 780
824 823 821 819 818 817 815 814 812 811 809 808 806 805 804 803 802 801 800 799 798 798 797 796 795 795 794 793 795 787 767 764 766 764 765 764 763 763 762 763 764 765 765 764 763 763 763 763 762 763 765 764 764 765 763 761 760 759 760 762 763 763 762 760 760 761 762 762 761 764 768 772 773 771 774 775 773 773 775 777 776 777 779 779 780 781 781 783
823 822 820 818 817 815 814 813 811 810 808 806 805 803 802 801 800 799 798 798 797 797 796 795 795 794 793 791 786 775 766 766 765 764 764 763 763 762 761 762 762 763 764 764 762 761 763 762 762 764 763 762 764 765 762 758 759 758 759 764 764 763 763 758 758 761 762 762 759 762 772 776 775 773 773 772 772 774 777 779 779 778 779 780 782 782 783 785
822 821 819 818 816 814 813 811 809 808 806 805 804 802 801 799 798 797 796 796 795 795 794 794 794 793 794 786 774 769 768 767 765 763 762 761 762 760 760 760 760 761 762 763 761 760 762 762 763 764 762 762 763 762 759 757 759 759 760 764 765 768 764 754 756 760 761 762 756 763 778 778 775 775 773 770 771 775 779 780 780 780 780 781 782 783 784 785
821 820 818 816 815 813 811 810 808 807 805 804 802 801 799 797 796 794 794 794 793 794 793 793 792 792 792 780 768 769 768 766 765 762 760 760 760 758 758 758 758 759 760 761 760 760 761 761 763 764 763 762 761 759 760 760 760 760 762 764 766 772 764 750 752 757 760 762 754 763 778 775 776 778 772 770 771 773 778 780 781 781 781 782 782 784 785 786
820 819 817 815 813 812 810 809 807 805 804 802 800 799 797 795 794 792 792 791 791 792 791 792 791 791 791 777 767 768 765 764 763 760 760 760 759 758 757 757 758 758 759 760 759 759 760 760 762 764 763 761 761 764 764 764 761 759 765 767 767 769 762 750 749 752 756 760 756 763 777 777 777 778 770 769 771 772 777 779 780 782 782 783 783 784 786 786
819 817 816 814 812 810 809 807 806 804 802 800 798 797 794 793 791 789 789 788 789 789 790 791 789 791 791 777 767 765 764 763 761 760 760 760 759 758 757 757 757 757 758 757 758 759 759 760 761 761 761 761 764 767 766 768 766 760 762 765 765 767 766 756 751 749 751 757 759 762 772 778 777 775 771 769 771 773 777 779 780 781 782 783 784 785 785 787
818 816 814 813 811 809 807 806 804 802 801 799 796 794 791 789 787 786 785 786 786 786 788 789 787 791 785 771 766 765 763 762 761 760 759 759 759 756 757 758 756 756 756 756 757 758 758 759 759 760 761 762 764 766 770 773 769 763 761 763 764 765 768 763 754 751 749 753 760 762 765 771 773 772 771 770 770 773 776 779 780 780 781 782 783 785 785 786
817 815 813 811 809 808 806 804 803 801 799 797 794 791 788 786 785 784 783 784 785 786 789 788 790 791 776 764 766 765 762 763 761 760 758 757 756 754 756 757 756 755 755 756 756 756 758 757 758 762 763 764 764 763 765 763 756 759 764 766 764 763 765 763 755 752 751 751 757 764 766 770 774 772 771 771 770 772 774 776 778 779 780 782 783 785 785 785
816 814 812 810 808 806 804 803 801 800 798 795 793 789 786 785 784 783 783 784 785 786 786 785 787 784 766 759 765 764 763 763 761 759 757 756 755 754 755 756 756 755 755 757 756 755 756 757 759 762 761 759 757 754 754 752 748 752 760 762 761 761 762 760 752 748 750 754 758 762 765 771 775 773 772 772 771 772 774 776 778 779 779 781 783 784 784 784
814 812 811 809 807 805 803 802 800 799 797 794 792 788 787 789 788 785 784 785 783 781 779 779 779 775 764 761 764 764 762 762 760 758 756 756 756 755 755 756 756 755 754 756 756 754 754 759 759 755 752 751 752 752 751 753 750 749 755 758 757 758 759 757 751 745 746 753 760 760 763 771 774 773 772 771 771 773 774 776 777 777 778 779 781 782 783 783
813 811 809 807 805 804 802 801 799 798 796 794 793 791 791 794 794 790 786 782 778 776 775 773 773 770 764 762 763 764 764 761 759 756 754 754 756 757 755 755 755 755 754 753 753 753 754 757 753 747 747 748 752 754 752 753 753 751 753 755 758 757 755 752 748 746 744 749 761 763 764 771 772 771 770 769 771 772 771 773 775 775 777 778 779 780 781 782
812 810 808 806 804 802 800 799 798 796 795 794 793 794 793 794 793 792 789 782 773 772 771 769 769 767 762 761 762 765 768 765 758 752 751 752 754 755 753 754 755 752 753 752 752 756 757 752 746 745 747 747 750 752 751 754 756 757 756 755 759 758 754 751 747 747 747 749 763 768 767 773 772 768 769 768 769 769 767 769 771 773 775 777 777 778 780 781
811 808 807 804 802 801 799 798 797 795 794 794 793 793 793 791 791 791 791 786 773 767 766 765 767 765 761 760 759 762 766 766 760 750 747 751 753 752 751 754 755 752 752 752 751 756 757 748 743 744 745 746 750 752 753 756 758 760 759 757 759 758 756 754 750 751 754 754 762 769 772 776 772 769 771 769 769 769 768 769 770 772 773 775 775 776 779 780
809 807 805 802 801 799 797 796 795 794 794 793 793 792 791 791 791 790 790 788 778 767 762 761 762 761 759 757 757 760 762 761 758 749 744 748 750 750 750 752 754 753 751 748 748 752 750 744 740 741 743 747 751 753 754 758 761 762 760 757 756 755 753 752 752 754 759 762 762 767 779 783 775 772 773 770 771 770 769 771 771 772 772 773 775 775 777 778
807 806 803 801 800 797 796 795 794 794 793 792 791 791 791 790 789 789 790 791 783 768 760 759 759 757 754 754 756 758 760 758 753 747 744 745 747 747 748 748 751 752 750 748 750 752 749 742 739 740 743 746 750 754 754 755 762 763 760 755 752 753 752 752 753 754 761 771 766 763 779 787 776 772 773 771 771 772 771 772 772 772 772 773 774 775 775 777
806 804 801 800 798 796 795 794 793 793 792 791 790 790 790 789 789 789 791 796 786 765 757 758 758 753 751 754 755 756 761 755 745 743 744 744 744 745 747 746 746 749 749 749 751 751 747 742 741 742 743 745 749 753 751 751 761 765 756 750 750 751 752 753 753 754 761 769 764 758 768 782 781 773 770 770 772 772 772 772 772 772 771 771 772 773 774 776
804 802 800 798 797 796 795 793 793 793 792 791 789 790 789 787 789 788 791 796 780 758 755 758 756 753 750 752 753 755 759 749 739 741 741 741 742 743 747 747 745 745 744 747 752 747 742 742 744 744 743 745 748 751 749 747 757 760 749 746 750 751 753 755 754 756 762 765 765 762 760 773 783 773 765 768 772 773 773 772 771 770 769 769 770 771 773 774
802 800 798 796 795 796 794 794 794 792 792 790 789 790 789 787 789 788 793 793 770 751 753 754 752 751 749 751 752 751 749 744 743 742 738 739 741 742 747 746 744 744 739 743 749 742 737 740 744 745 746 746 745 744 744 745 750 749 743 744 748 749 751 753 754 757 762 767 771 769 761 767 779 772 763 768 771 771 772 770 768 767 766 767 769 770 771 772
800 798 796 794 793 792 793 793 793 791 790 789 789 789 788 789 789 788 796 789 761 750 753 750 750 751 750 753 754 751 748 746 746 742 738 740 739 740 744 742 741 742 738 739 742 738 736 736 737 742 746 745 741 739 740 743 744 741 742 744 746 749 751 753 757 758 763 770 769 766 762 764 773 772 765 767 770 768 767 765 763 763 764 765 767 768 769 770
798 796 793 792 790 790 791 791 789 788 788 789 790 788 788 789 788 793 800 784 760 755 753 750 752 753 753 755 755 752 751 749 745 740 740 742 741 739 739 737 738 740 739 739 740 736 733 732 733 738 740 738 736 736 738 738 738 741 745 745 748 754 753 755 759 759 768 773 763 758 760 761 767 770 764 759 758 757 758 760 759 759 761 762 763 765 767 768
795 792 790 789 788 788 789 789 787 785 787 788 788 788 789 790 792 799 794 773 761 759 753 754 757 755 756 759 758 753 750 749 744 741 741 742 744 743 740 739 740 740 741 742 741 737 734 735 735 733 731 732 734 737 738 734 734 740 742 742 752 758 755 759 764 766 773 769 754 752 758 764 767 764 759 751 744 745 749 752 753 753 755 757 759 762 764 765
791 788 786 785 786 786 787 787 786 785 786 787 788 789 790 793 796 796 781 764 762 761 756 759 760 757 757 760 760 754 749 749 745 741 741 741 745 746 742 741 741 743 747 745 743 740 737 736 734 730 728 729 733 740 742 738 736 740 742 744 757 765 766 769 770 770 771 762 756 757 756 764 765 751 748 749 742 740 740 740 741 744 748 752 755 758 761 763
788 785 783 783 783 784 785 786 786 787 787 787 790 790 792 797 792 780 773 767 763 761 760 761 759 758 759 758 756 752 751 750 744 742 741 739 744 745 741 739 738 742 746 744 743 744 742 738 734 732 730 726 729 740 745 743 740 740 742 745 754 764 772 777 773 770 768 759 760 761 754 760 760 741 736 740 736 732 730 730 733 737 744 748 752 756 759 761
785 783 782 781 782 782 783 785 785 787 788 788 791 792 794 795 781 767 768 767 762 761 761 761 759 758 758 757 751 747 751 749 742 742 742 739 743 744 742 740 738 740 740 740 743 744 746 744 735 732 731 725 726 733 735 737 739 738 737 740 746 751 758 768 767 766 767 764 764 762 755 755 750 735 729 728 726 726 726 729 732 737 743 747 752 756 757 759
783 781 781 781 782 781 782 784 785 786 788 789 792 794 792 786 774 767 766 762 761 762 759 758 759 758 754 752 748 745 748 748 742 740 742 741 741 742 740 738 738 739 739 740 742 740 743 742 730 725 725 723 726 728 724 731 741 740 736 740 744 741 743 755 761 759 760 761 765 763 753 746 738 729 729 728 726 728 728 729 734 738 743 747 751 754 755 757
782 781 781 781 781 781 781 782 784 786 788 790 793 792 786 776 770 768 764 760 761 762 760 757 756 757 752 748 750 748 747 747 744 742 742 741 739 738 736 734 735 737 736 738 739 739 743 739 727 724 725 722 723 724 721 727 737 740 740 740 738 732 734 748 760 762 758 754 760 761 750 743 737 728 728 730 728 729 730 730 734 737 740 745 748 750 752 755
783 782 782 782 781 781 781 781 783 785 787 792 792 784 776 770 766 765 763 762 761 760 762 759 753 753 751 748 751 750 746 745 744 744 743 741 738 735 735 732 732 734 734 734 736 735 739 736 725 724 727 723 719 719 720 720 724 735 740 735 731 732 735 742 752 762 763 756 757 760 753 747 743 733 730 731 730 731 732 731 734 738 740 742 744 746 748 751
785 784 782 782 782 781 781 782 784 786 788 791 789 778 772 768 763 762 761 760 759 759 761 759 753 752 751 749 748 747 746 744 744 745 743 740 736 732 732 732 730 730 731 733 736 734 734 733 725 722 724 722 718 721 726 722 718 726 729 726 730 740 745 747 752 758 763 762 758 758 757 751 742 734 727 726 728 730 732 733 735 738 738 738 739 742 745 748
785 784 783 782 782 781 782 783 784 786 789 790 786 777 770 766 760 757 758 757 757 758 758 755 751 751 751 749 745 744 744 742 742 743 740 739 736 728 728 729 729 729 729 732 736 735 732 732 729 722 718 719 721 725 730 728 723 723 723 724 729 734 737 742 750 751 752 759 759 755 757 750 736 725 716 715 721 724 728 732 733 731 731 731 733 737 741 744
785 784 783 783 783 783 783 784 785 789 790 785 781 775 769 764 758 753 753 755 754 754 754 752 750 750 750 746 742 741 740 738 739 739 736 736 734 727 725 726 727 729 729 731 734 733 733 733 730 724 718 721 724 722 722 725 727 727 728 731 730 730 732 736 745 746 742 751 758 755 754 739 720 713 707 707 715 718 719 723 725 725 725 726 729 733 737 741
787 785 784 784 785 784 785 786 787 789 788 783 778 774 768 763 758 752 750 752 751 749 749 750 750 749 748 746 741 738 738 736 736 734 732 733 732 727 724 721 723 727 729 733 734 733 733 733 731 728 724 723 719 713 713 717 722 725 726 730 728 728 734 740 749 748 739 743 750 752 749 726 705 705 703 702 710 713 712 714 716 719 721 723 727 730 734 739
788 786 785 785 786 785 786 788 787 788 787 780 774 769 764 760 758 754 750 750 750 748 747 747 748 747 747 746 741 738 737 734 733 730 727 728 729 724 720 718 719 723 726 732 732 729 730 732 734 732 727 724 716 710 711 711 715 720 720 723 726 726 731 738 747 745 739 744 746 747 744 719 702 709 707 701 706 708 709 712 713 717 719 723 727 730 735 739
790 788 785 786 786 786 788 786 783 784 782 774 768 764 759 758 758 754 752 751 750 749 748 746 745 745 744 743 742 740 736 731 730 727 723 724 722 719 718 717 717 720 724 729 728 724 727 732 734 731 724 721 716 711 711 708 712 719 719 719 722 722 722 726 733 735 735 740 741 745 745 718 702 712 710 702 706 706 709 713 715 720 723 726 730 732 735 739
791 790 787 786 786 787 788 786 782 781 777 771 767 761 755 754 754 751 750 750 748 747 746 743 744 745 744 744 743 739 735 730 727 723 721 721 717 713 715 715 716 719 720 723 722 722 727 731 733 734 730 726 724 722 721 716 714 715 716 717 716 716 720 724 728 730 732 734 733 740 741 716 703 714 710 703 708 708 710 713 715 720 724 726 730 732 735 739
790 787 786 786 786 787 787 785 785 784 778 774 770 760 753 750 746 743 745 744 743 745 743 740 742 745 744 745 743 737 733 730 725 720 718 719 715 712 713 715 716 715 714 716 716 718 726 729 729 732 734 733 731 728 725 719 714 711 710 713 713 714 719 723 726 731 733 736 734 733 728 710 702 713 712 706 709 710 712 714 715 720 724 725 729 732 735 739
790 788 788 787 785 786 786 784 786 786 780 777 770 759 754 751 742 737 740 739 738 740 740 739 742 744 743 743 741 735 730 726 724 723 720 717 713 710 710 712 713 712 711 713 713 715 723 726 725 726 727 726 723 718 714 712 713 712 710 711 714 716 718 720 726 730 730 734 734 724 718 709 699 705 711 709 709 710 712 714 715 719 722 724 728 731 734 738
793 793 794 792 787 785 784 783 784 785 780 776 770 760 757 754 744 737 737 735 734 737 737 736 739 739 737 739 739 733 729 726 727 728 724 718 713 709 708 710 711 710 709 710 711 714 721 724 724 724 722 720 717 714 712 709 709 711 711 712 715 717 719 721 725 725 724 731 730 718 717 716 699 694 704 709 709 710 712 712 714 717 720 723 727 731 734 738
794 795 796 797 793 789 786 783 782 782 778 773 769 762 758 755 747 742 739 733 731 734 734 733 736 735 731 733 732 727 725 726 728 727 722 717 714 711 710 712 711 708 708 711 710 713 721 724 722 721 721 717 715 715 715 710 704 704 707 710 714 717 719 719 721 719 718 721 719 713 715 712 695 686 695 704 707 707 708 709 711 714 719 722 726 730 733 737
799 799 797 797 797 793 790 786 783 782 777 770 765 762 760 757 750 744 739 735 733 732 731 732 731 728 726 726 723 718 718 721 723 722 716 710 708 707 711 714 712 707 708 711 711 713 721 723 718 719 720 715 711 712 714 712 705 703 705 704 707 713 714 712 713 715 717 714 709 710 711 702 691 690 695 702 707 707 709 712 714 716 719 722 725 729 732 736
805 804 801 799 797 793 790 787 784 783 776 768 763 761 760 757 752 746 739 736 736 732 728 730 727 722 722 723 718 714 713 715 717 715 710 706 702 701 705 708 707 709 710 712 712 715 721 721 717 718 718 710 704 705 709 709 704 702 704 702 703 708 712 713 714 719 722 716 710 716 713 698 694 701 702 701 704 707 710 713 716 718 719 721 725 728 731 734
808 807 805 803 798 791 787 785 785 782 774 768 766 764 761 756 754 750 740 732 734 732 728 729 725 721 722 721 715 712 712 714 715 710 707 706 703 701 702 701 702 709 712 712 714 716 721 721 717 718 716 706 701 703 705 705 704 703 704 703 703 706 709 712 714 714 714 709 712 722 713 693 693 703 704 703 704 706 710 713 715 718 718 720 723 726 728 731
809 807 805 805 799 790 786 786 784 779 771 769 770 769 765 759 754 752 744 733 728 727 727 728 723 721 724 720 711 708 709 710 710 706 704 705 704 703 704 700 699 704 707 711 715 717 721 720 716 718 715 705 704 708 703 704 710 709 703 700 700 701 703 707 708 707 707 704 706 709 697 687 695 702 701 704 706 705 707 708 709 713 716 718 720 721 724 727